Theta_e
319 319 320 322 330 325 329 334 339 342 340 339 345 341 341 342 343 345 344 342 341 343 344 344 344 344 345 345 347 347 345 343
321 322 321 322 324 330 325 334 342 345 343 344 342 345 342 341 339 343 341 343 342 342 343 344 343 344 344 343 344 345 348 349
322 323 321 323 323 321 321 328 335 342 342 336 338 343 343 341 339 339 342 340 342 343 343 342 342 343 344 345 344 345 346 346
318 320 322 322 322 319 321 326 335 337 339 333 336 340 340 341 340 339 342 342 342 342 343 343 344 344 344 344 344 344 344 343
321 319 321 330 327 323 319 325 335 335 334 332 335 339 339 341 344 345 343 344 342 340 339 341 343 345 346 346 346 347 346 346
322 320 322 333 333 330 328 331 333 334 336 337 342 344 345 346 346 345 345 344 342 339 337 340 342 342 343 345 338 339 338 337
319 319 330 330 332 332 332 330 331 330 336 335 339 344 346 346 346 346 346 344 342 341 340 341 341 341 341 342 344 341 338 340
326 327 332 333 331 330 330 331 330 331 333 331 335 339 341 346 346 348 347 346 344 345 345 345 345 344 343 341 342 338 337 339
329 330 331 335 332 331 331 330 330 333 329 333 337 339 339 342 345 345 345 345 344 343 344 346 346 346 345 341 340 342 340 338
331 328 335 329 329 330 330 331 328 328 329 329 330 333 337 338 343 344 343 343 342 342 343 346 348 350 349 348 347 345 345 344
332 329 327 329 332 332 331 331 331 329 330 332 333 332 335 337 338 343 343 343 345 345 345 345 345 347 347 348 347 347 346 345
326 332 331 326 330 329 328 332 331 331 332 334 334 336 335 336 338 337 342 345 347 347 346 346 346 347 345 344 345 346 346 347
330 336 332 327 330 329 333 331 331 332 332 332 334 332 332 334 336 339 343 345 347 346 345 346 347 347 343 341 341 345 348 347
329 332 333 331 330 333 328 326 329 330 330 334 332 333 335 336 339 342 341 342 344 343 342 342 343 341 338 341 343 344 346 345
329 328 326 330 332 331 328 328 329 328 330 334 333 335 336 339 341 340 340 342 342 341 341 342 342 341 340 340 339 342 340 340
330 330 331 332 330 330 330 330 330 330 332 334 334 335 337 338 339 337 338 340 340 339 337 337 338 337 335 334 335 337 338 338
329 328 328 331 332 330 331 330 334 335 336 335 334 334 334 335 336 335 337 337 337 337 337 337 338 336 333 334 333 336 338 338
331 326 324 326 328 331 330 330 331 334 335 336 332 331 331 333 333 331 332 335 336 337 338 338 338 336 335 335 332 333 337 338
327 327 326 327 327 327 329 329 331 334 334 333 333 334 333 331 333 334 334 330 334 337 338 339 338 337 336 335 333 333 333 334
Wind_Speed
5 6 9 5 4 3 7 3 3 3 7 9 5 5 5 7 8 10 10 11 12 14 22 27 30 33 31 28 28 29 33 33
7 3 3 7 6 2 3 2 3 4 5 5 3 8 7 7 8 8 8 9 9 12 21 31 29 30 31 32 27 24 25 30
2 5 6 3 2 5 5 4 6 3 6 7 8 7 9 8 7 9 10 12 11 11 22 25 22 20 26 26 23 24 23 23
12 6 3 5 5 6 5 4 1 3 6 3 7 8 8 9 8 8 7 7 7 11 15 17 20 21 24 26 24 23 24 31
10 7 5 3 3 5 6 3 5 6 6 1 3 3 7 10 8 7 6 5 6 7 11 17 22 19 18 18 21 21 19 20
11 9 5 4 3 4 5 4 4 5 4 4 4 6 6 7 11 9 8 7 6 6 7 14 16 18 17 21 22 21 22 22
7 6 6 6 11 7 4 6 6 5 8 10 8 10 13 10 8 8 7 7 8 8 7 14 19 22 24 22 27 21 16 14
4 2 5 5 9 8 4 5 2 4 7 3 7 6 4 12 12 10 9 9 8 6 6 10 14 19 22 22 21 18 18 19
3 4 2 2 7 8 6 6 8 6 7 5 8 9 8 12 15 16 13 12 10 9 9 13 14 13 15 18 19 20 21 24
3 3 4 8 3 5 7 9 7 5 6 5 7 10 16 11 16 13 11 11 9 9 14 13 10 8 8 10 12 14 17 20
3 4 4 5 2 7 7 6 2 6 6 2 4 5 1 13 11 16 14 10 17 22 22 16 13 10 8 7 7 9 12 15
4 4 6 5 8 4 4 4 2 2 3 5 7 5 6 13 13 8 11 20 22 27 24 21 17 14 11 7 8 9 9 9
5 5 5 6 5 5 6 6 1 2 4 6 4 5 1 13 10 15 20 22 25 25 24 22 18 16 11 7 5 4 3 5
2 2 5 6 2 4 3 6 3 4 2 3 6 6 11 14 15 15 14 20 24 23 21 18 18 15 11 9 6 4 8 5
5 4 3 2 1 4 5 2 3 4 6 3 5 5 14 15 18 16 22 23 24 25 22 19 17 15 12 9 6 7 7 7
4 3 4 5 6 4 5 4 7 4 6 3 6 9 9 14 16 16 19 20 25 26 22 20 18 15 10 9 7 6 8 9
5 7 7 2 2 3 7 5 6 3 4 1 12 7 9 5 8 13 20 21 26 24 24 24 20 17 14 11 9 9 8 11
4 6 3 6 3 2 5 6 7 3 2 3 9 10 8 9 7 10 3 18 20 23 25 25 23 19 16 14 10 9 9 11
4 4 5 6 7 4 6 9 5 7 6 6 7 7 7 7 11 13 15 15 21 27 28 29 25 20 17 15 11 10 9 10
Wind_Direction
230 197 144 207 192 192 106 31 91 239 289 289 115 73 118 140 164 188 178 181 176 171 181 193 200 207 209 208 215 217 222 223
279 63 277 163 165 83 5 150 202 274 271 235 245 164 157 168 193 185 178 189 179 183 191 204 203 213 210 213 211 225 227 229
41 212 201 95 163 55 121 128 169 180 260 220 206 209 174 179 195 188 183 196 186 186 199 208 210 212 216 218 221 220 221 226
230 276 306 176 169 139 132 217 145 154 274 292 242 188 175 152 180 193 179 192 153 171 188 198 205 214 212 216 219 238 240 233
292 347 348 196 151 114 113 85 187 142 261 0 240 216 206 153 161 161 170 149 133 148 179 194 205 209 206 217 216 219 207 210
214 211 168 142 147 141 114 117 172 229 236 290 189 155 142 140 149 161 172 167 159 159 199 203 212 218 218 218 204 201 212 222
235 215 171 165 169 192 157 168 149 221 217 220 201 178 167 159 150 150 172 171 185 175 181 202 222 234 239 233 225 226 219 213
296 273 211 196 182 174 130 142 118 146 252 218 120 106 170 171 159 170 182 179 175 153 169 178 207 225 232 232 228 226 236 244
253 330 166 333 215 180 173 169 153 177 228 207 141 168 214 190 177 178 183 168 158 169 183 186 196 209 220 227 234 241 244 248
200 25 237 243 260 188 186 184 189 159 168 198 181 213 193 199 185 179 184 161 152 165 170 192 190 195 206 215 226 238 249 257
188 183 280 314 239 163 170 243 181 187 160 182 74 106 148 175 186 184 181 158 160 170 170 171 177 175 173 183 213 233 252 265
165 163 204 221 298 285 111 260 239 146 128 87 135 138 208 174 175 168 152 153 156 165 169 169 175 179 175 170 201 231 242 238
214 215 232 195 294 318 133 230 15 88 192 97 182 188 284 146 155 161 154 149 154 161 165 169 174 176 172 170 181 201 189 171
272 206 276 13 265 173 222 306 321 274 32 83 214 144 151 164 150 145 136 143 157 159 162 162 164 170 161 154 150 179 200 213
192 235 279 312 357 286 220 158 322 290 294 140 133 162 165 162 153 152 154 160 159 160 162 169 169 175 163 170 170 166 199 192
354 266 250 308 308 352 339 345 287 269 277 234 149 153 161 155 156 152 157 160 160 155 158 168 171 171 173 170 177 184 186 199
272 279 286 311 252 322 326 330 314 22 314 177 98 75 103 111 182 150 161 162 162 164 170 169 169 174 173 175 182 190 193 194
241 246 200 255 268 248 320 304 297 246 176 271 118 121 114 97 39 54 188 165 167 175 172 173 177 181 184 187 194 195 197 192
249 238 222 265 279 263 231 256 263 242 222 231 183 151 132 97 50 30 300 252 181 180 180 182 185 192 196 195 199 209 215 210